Meteo Giornale » Osservazioni meteo Italia » Napoli-Capodichino

ore: 22:50 - Osservazioni Meteo Napoli-Capodichino
Lat. 40° 51' N Lon. 14° 18' E Alt. 88 metri s.l.m.

poco_nuvoloso Europe/Rome

16 °C

Poco Nuvoloso

Temp. 24 Ore

14 °C

21 °C

Sud/Sud-Ovest

13 Km/h

Dew point 13 °C

Umidità 82 %

Visibilità  10 Km

Il sole sorge alle ore 05:38

Il sole tramonta alle ore 20:20

Data e Ora Cielo e Fenomeni T °C DP °C Um. % Pres. hPa Vis. km Vento km/h
Oggi h: 22:50 poco_nuvoloso Poco Nuvoloso 16 13 82 1017 10 S/SO 13
Oggi h: 22:20 poco_nuvoloso Poco Nuvoloso 16 13 82 1017 10 S/SO 11.1
Oggi h: 21:50 poco_nuvoloso Poco Nuvoloso 16 13 82 1017 10 S/SO 11.1
Oggi h: 21:20 poco_nuvoloso Poco Nuvoloso 16 13 82 1016 10 S/SO 11.1
Oggi h: 20:50 poco_nuvoloso Poco Nuvoloso 16 13 82 1017 10 S/SO 9.3
Oggi h: 20:20 poco_nuvoloso Poco Nuvoloso 16 13 82 1016 10 S/SO 9.3
Oggi h: 19:50 poco_nuvoloso Poco Nuvoloso 17 13 77 1016 10 S/SO 13
Oggi h: 19:20 poco_nuvoloso Poco Nuvoloso 18 13 72 1016 10 S/SO 13
Oggi h: 18:50 poco_nuvoloso Poco Nuvoloso 17 13 77 1016 10 S/SO 13
Oggi h: 18:20 nuvoloso Nuvoloso 18 13 72 1016 10 S/SO 16.7
Oggi h: 17:50 nuvoloso Nuvoloso 19 12 63 1017 10 S/SO 16.7
Oggi h: 17:20 nuvoloso Nuvoloso 19 13 68 1016 10 S/SO 16.7
Oggi h: 16:50 nuvoloso Nuvoloso 19 14 72 1016 10 SO 16.7
Oggi h: 16:20 nuvoloso Nuvoloso 19 13 68 1016 10 SO 20.3
Oggi h: 15:50 poco_nuvoloso Poco Nuvoloso 19 13 68 1016 10 S/SO 20.3
Oggi h: 15:20 nuvoloso Nuvoloso 19 12 63 1016 10 SO 13
Oggi h: 14:50 nuvoloso Nuvoloso 20 10 52 1016 10 O 18.5
Oggi h: 14:20 nuvoloso Nuvoloso 21 10 49 1016 10 O/NO 18.5
Oggi h: 13:50 nuvoloso Nuvoloso 20 11 56 1016 10 O/NO 16.7
Oggi h: 13:20 nuvoloso Nuvoloso 20 11 56 1016 10 O 16.7
Oggi h: 12:50 molto_nuvoloso Molto Nuvoloso 19 12 63 1016 10 O 18.5
Oggi h: 12:20 molto_nuvoloso Molto Nuvoloso 19 11 59 1016 10 O 20.3
Oggi h: 11:50 molto_nuvoloso Molto Nuvoloso 18 12 67 1016 10 O 18.5
Oggi h: 11:20 molto_nuvoloso Molto Nuvoloso 18 12 67 1015 10 O 18.5
Oggi h: 10:50 molto_nuvoloso Molto Nuvoloso 18 12 67 1015 10 O 18.5
Oggi h: 10:20 molto_nuvoloso Molto Nuvoloso 17 12 72 1015 10 O 18.5
Oggi h: 09:50 molto_nuvoloso Molto Nuvoloso 17 12 72 1015 10 O 16.7
Oggi h: 09:20 molto_nuvoloso Molto Nuvoloso 17 12 72 1014 10 O 13
Oggi h: 08:50 molto_nuvoloso Molto Nuvoloso 16 13 82 1014 10 O/SO 11.1
Oggi h: 08:20 molto_nuvoloso Molto Nuvoloso 15 13 87 1014 10 O 9.3
Oggi h: 07:50 coperto_pioggia Pioggia Debole 15 13 87 1013 10 O 11.1
Oggi h: 07:20 coperto_pioggia Pioggia Debole 14 13 93 1013 7 O 14.8
Oggi h: 06:50 coperto_pioggia Pioggia Debole 15 12 82 1013 7 O 13
Oggi h: 06:20 molto_nuvoloso Molto Nuvoloso 16 12 77 1013 10 O/SO 14.8
Oggi h: 05:50 molto_nuvoloso Molto Nuvoloso 16 13 82 1013 8 SO 11.1
Oggi h: 05:20 molto_nuvoloso Molto Nuvoloso 16 13 82 1013 10 S/SO 11.1
Oggi h: 04:50 molto_nuvoloso Molto Nuvoloso 16 13 82 1013 10 SO 11.1
Oggi h: 04:20 molto_nuvoloso Molto Nuvoloso 15 13 87 1013 10 SO 9.3
Oggi h: 03:50 molto_nuvoloso Molto Nuvoloso 15 12 82 1013 10 SO 9.3
Oggi h: 03:20 molto_nuvoloso Molto Nuvoloso 15 12 82 1013 10 SO 7.4
Oggi h: 02:50 molto_nuvoloso Molto Nuvoloso 15 12 82 1013 10 SO 9.3
Oggi h: 02:20 nuvoloso Nuvoloso 15 12 82 1013 10 SO 9.3
Oggi h: 01:50 nuvoloso Nuvoloso 15 11 76 1013 10 SO 7.4
Oggi h: 01:20 nuvoloso Nuvoloso 15 11 76 1013 10 SO 7.4
Oggi h: 00:50 nuvoloso Nuvoloso 15 12 82 1013 10 O/SO 9.3
Oggi h: 00:20 nuvoloso Nuvoloso 15 12 82 1013 10 N 5.5
Ieri h: 23:50 nuvoloso Nuvoloso 15 11 76 1013 10 N 5.5